SCP
0 0 0 0 0 0 0 0 0 0 0 0 0 0 0 0 0 0 0 0 -0 0 0 0 0 0 0 0 0 0 0 0 0 0 0 0 0 0 0 0 0 0 0 0
0 0 0 0 0 0 0 0 0 0 0 0 0 0 0 0 0 0 0 0 0 0 0 0 0 0 0 0 0 0 0 0 0 0 0 0 0 0 0 0 0 0 0 0
0 0 0 0 0 0 0 0 0 0 0 0 0 0 0 0 0 0 0 0 0 0 0 0 0 0 0 0 0 0 0 0 0 0 0 0 0 0 0 0 0 0 0 0
0 0 0 0 0 0 0 0 0 0 0 0 0 0 0 0 0 0 0 0 0 0 0 0 0 0 0 0 0 0 0 0 0 0 0 0 0 0 0 0 0 0 0 0
0 0 0 0 0 0 0 0 0 0 0 0 0 0 0 0 0 0 0 0 0 0 0 0 0 0 0 0 0 0 0 0 0 0 0 0 0 0 0 0 0 0 0 0
0 0 0 0 0 0 0 0 0 0 0 0 0 0 0 0 0 0 0 0 0 0 0 0 0 0 0 0 0 0 0 0 0 0 0 0 0 0 0 0 0 0 0 0
0 0 -0 0 0 0 0 0 0 0 0 0 0 0 0 0 0 0 0 0 0 0 0 0 0 0 0 0 0 0 0 0 0 0 0 0 0 0 0 0 0 0 0 0
0 0 0 0 0 0 0 0 0 0 0 0 0 0 0 0 0 0 0 0 0 0 0 0 0 0 0 0 0 0 0 0 0 0 0 0 0 0 0 0 0 0 0 0
0 0 0 0 0 0 0 0 0 0 0 0 0 0 0 0 0 0 0 0 0 0 0 0 0 0 0 0 0 0 0 0 0 0 0 0 0 0 0 0 0 0 0 0
0 0 0 0 0 0 0 0 0 0 0 0 0 0 0 0 0 0 0 0 0 0 0 0 0 0 0 0 0 0 0 0 0 0 0 0 0 0 0 0 0 0 0 0
0 0 0 0 0 0 0 0 0 0 0 0 0 0 0 0 0 0 0 0 0 0 0 0 0 0 0 0 0 0 0 0 0 0 0 0 0 0 0 0 0 0 0 0
0 0 0 0 0 0 0 0 0 0 0 0 0 0 0 0 0 0 0 0 0 0 0 0 0 0 0 0 0 0 0 -0 -0 0 0 0 0 0 0 0 0 0 0 0
0 0 0 0 0 0 0 0 0 0 0 0 0 0 0 0 0 0 0 0 0 0 0 0 0 0 0 0 0 0 0 0 -0 0 0 0 0 0 0 0 0 0 0 0
0 0 0 0 0 0 0 0 0 0 0 0 0 0 0 0 0 0 0 0 0 0 0 0 0 0 0 0 0 0 0 0 0 0 0 0 0 0 0 0 0 0 0 0
0 0 0 0 0 0 0 0 0 0 0 0 0 0 0 0 0 0 0 0 0 0 0 0 0 0 0 0 0 0 0 0 0 0 0 0 0 0 0 0 0 0 0 0
0 0 0 0 0 0 0 0 0 0 0 0 0 0 0 0 0 0 0 0 0 0 0 0 0 0 0 0 0 0 0 0 0 0 0 0 0 0 0 0 0 0 0 0
0 0 0 0 0 0 0 0 0 0 0 0 0 0 0 0 0 0 0 0 0 0 -0 0 0 0 0 0 0 0 0 0 0 0 0 0 0 0 0 0 0 0 0 0
0 0 0 0 0 0 0 0 0 0 0 0 0 0 0 0 0 0 0 0 0 0 -0 0 0 0 0 0 0 0 0 0 0 0 0 0 0 0 0 0 0 0 0 0
0 0 0 0 0 0 0 0 0 0 0 0 0 0 0 0 0 0 0 0 0 0 0 0 0 -0 0 0 0 0 0 0 0 0 0 0 0 0 0 0 0 0 0 0
0 0 0 0 0 0 0 0 0 0 0 0 0 0 0 0 0 0 0 0 0 0 0 0 0 0 0 0 0 0 0 0 0 0 0 0 0 0 0 0 0 0 0 0
-0 0 0 0 0 0 0 0 0 0 0 0 0 0 0 0 0 0 0 0 0 0 0 0 -0 -0 0 0 0 0 0 0 0 0 0 0 0 0 0 0 0 0 0 0
-0 0 0 0 0 0 0 0 0 0 0 0 0 0 0 0 0 0 0 0 0 0 0 0 -0 -0 -0 0 0 0 0 0 0 0 0 0 0 0 0 0 0 0 0 0
-0 0 0 0 0 0 0 0 0 0 0 0 0 0 0 0 0 0 0 0 0 0 0 -0 -0 0 0 0 0 0 0 0 0 0 0 0 0 0 0 0 0 0 0 0
0 0 0 -0 -0 0 0 0 0 0 0 0 0 0 0 0 0 0 0 0 0 0 0 -0 -0 0 0 0 0 0 0 0 0 0 0 0 0 0 0 0 0 0 0 0
0 0 -0 -0 -0 0 0 0 0 0 0 0 0 0 0 0 0 0 0 0 0 0 0 0 0 0 0 0 0 0 0 0 0 0 0 0 0 0 0 0 0 0 0 0
0 0 0 0 0 0 0 0 0 0 0 0 0 0 0 0 0 0 0 0 0 0 0 0 0 0 0 0 0 0 0 0 0 0 0 0 0 0 0 0 0 0 0 0
Wind_Speed
3 2 4 6 7 6 5 6 9 9 6 6 8 11 11 7 3 4 4 4 4 5 5 2 2 3 3 3 4 6 6 5 5 5 5 5 5 5 5 5 7 9 9 10
1 4 7 6 5 6 6 7 7 7 4 4 6 9 8 6 4 3 4 4 4 3 3 2 2 1 2 3 4 5 5 5 5 6 5 4 4 4 4 4 6 8 9 10
4 5 3 3 3 4 5 5 5 5 5 3 4 7 5 5 4 5 6 5 4 2 2 3 2 0 1 1 2 3 5 4 4 5 4 3 3 3 3 4 5 7 8 8
3 4 2 2 3 3 4 4 5 5 4 4 2 4 6 6 7 8 8 7 5 5 3 1 1 2 1 0 2 3 4 5 4 4 5 5 4 4 4 3 4 6 7 7
3 2 1 2 4 2 5 4 4 4 2 3 2 1 5 6 8 10 9 8 7 6 3 2 2 2 2 2 2 2 2 3 3 3 4 5 4 3 2 2 4 5 5 6
3 2 2 3 3 3 3 2 3 1 1 2 3 1 4 5 7 8 8 9 8 8 7 6 5 4 3 3 3 2 2 2 3 4 4 4 4 4 4 2 3 4 4 4
3 3 2 1 2 3 2 3 3 5 3 2 3 1 3 5 5 5 6 8 9 10 9 8 7 6 5 5 4 3 3 2 2 3 3 3 4 4 4 3 3 4 3 3
1 4 3 1 1 1 1 2 2 1 2 3 4 2 3 5 5 5 6 7 8 10 9 10 9 7 7 6 6 5 4 3 3 3 2 2 2 2 2 2 2 3 3 3
2 3 3 2 1 1 0 0 2 2 1 1 3 3 3 6 6 7 7 8 8 8 9 9 9 9 8 7 6 6 5 5 4 4 3 3 2 2 2 2 2 2 2 2
2 1 4 3 2 2 1 1 2 1 1 1 3 2 3 5 6 7 7 7 7 8 9 9 9 9 8 7 7 7 8 7 5 5 4 3 3 2 2 2 2 1 1 2
1 1 4 3 1 1 1 1 1 1 2 2 1 3 1 2 2 3 5 6 6 7 8 8 9 9 9 9 9 9 8 8 7 6 5 5 4 4 3 2 1 1 0 1
1 2 2 4 3 1 1 1 1 1 1 1 2 3 2 1 1 3 4 6 6 7 7 8 8 9 10 10 10 9 9 8 8 6 6 5 5 4 4 2 1 1 0 1
1 3 2 5 4 3 1 1 1 2 2 1 1 3 1 2 3 3 4 5 5 6 7 8 8 9 9 9 9 9 8 8 7 6 6 6 6 5 4 3 2 1 1 0
2 2 3 4 5 2 2 2 1 2 2 1 3 3 2 1 2 3 3 3 4 5 7 8 8 8 8 8 8 8 8 7 7 7 6 5 5 4 4 3 3 2 2 1
3 1 1 3 4 2 2 3 1 2 4 4 4 3 4 3 1 1 1 3 4 5 6 6 7 7 7 7 7 7 7 7 6 6 6 5 5 4 4 4 4 3 3 2
2 1 1 3 3 2 3 3 2 2 2 3 3 3 2 1 1 1 1 2 3 3 4 5 6 6 6 6 6 7 7 6 6 6 6 6 5 5 5 5 4 4 4 3
1 1 1 3 4 3 5 4 4 3 3 5 5 5 3 2 2 3 2 2 1 1 2 3 4 4 4 5 5 6 6 6 6 6 5 5 5 6 6 5 5 5 4 4
2 2 1 1 2 3 5 2 3 3 3 4 3 3 4 4 3 2 2 2 1 0 1 2 3 3 4 4 5 5 5 6 6 6 6 6 5 5 5 5 5 5 4 4
3 3 1 1 1 6 5 2 3 3 3 3 5 4 2 2 2 1 1 1 2 1 1 1 2 2 3 4 4 5 6 6 6 7 7 7 6 5 5 5 5 4 4 4
3 3 3 1 1 5 5 2 2 3 4 3 6 6 5 4 2 4 2 1 1 0 0 1 1 2 3 4 4 4 5 6 6 6 6 6 6 5 5 5 5 4 3 3
1 1 2 3 4 8 5 2 3 3 6 3 6 7 6 6 5 3 2 2 1 0 0 1 1 1 2 3 4 4 5 5 6 6 5 5 5 5 5 4 4 4 4 4
6 5 5 4 4 9 3 5 6 7 2 4 5 5 5 4 2 3 3 2 1 0 1 1 1 2 2 2 3 4 4 5 5 5 5 5 5 5 4 4 4 3 3 3
6 8 6 8 8 5 5 6 4 4 4 4 5 4 5 4 3 3 2 2 1 1 0 1 1 2 2 2 2 3 5 5 5 5 5 5 5 4 4 4 4 3 3 2
5 3 3 5 7 5 5 4 2 3 4 4 5 5 5 4 4 3 2 2 1 1 1 1 1 2 3 3 3 3 4 4 5 5 5 5 4 5 4 3 3 3 3 3
6 4 3 6 6 3 5 6 5 3 3 4 4 4 5 5 4 3 3 2 2 1 1 0 1 2 3 3 4 4 4 4 5 5 5 5 4 4 4 4 3 3 3 3
7 8 8 8 7 6 6 5 5 5 5 6 5 4 3 5 5 4 3 3 2 1 1 1 2 2 3 3 3 4 4 4 4 5 5 4 4 4 4 4 5 5 5 7
Wind_Direction
180 165 227 226 214 228 247 265 279 280 279 289 274 281 293 310 314 305 303 300 283 269 263 267 252 225 194 189 186 175 168 182 179 173 174 179 184 187 182 188 200 191 179 176
118 246 244 239 235 238 250 267 279 288 297 292 282 290 298 315 309 312 318 319 304 301 322 309 285 203 156 193 186 168 169 179 187 179 170 173 175 186 178 180 195 193 180 177
208 248 244 216 235 251 256 244 253 275 312 302 314 319 328 337 342 354 350 344 334 335 332 310 300 93 117 184 174 172 179 181 181 168 155 162 164 165 169 179 189 192 179 176
238 255 245 259 257 234 269 235 240 272 315 308 345 311 323 341 357 6 0 360 354 353 350 344 55 74 83 109 133 148 160 163 165 163 161 171 183 176 185 182 185 188 180 177
251 245 237 258 253 221 244 262 267 269 267 299 305 238 310 347 358 356 359 1 5 4 12 34 51 65 66 75 118 131 139 145 155 156 163 175 182 162 152 154 177 188 179 179
252 265 233 242 273 245 254 307 318 346 77 326 299 225 317 346 337 344 2 10 12 15 23 28 30 45 49 52 71 87 114 121 141 151 158 169 166 158 152 161 191 188 181 179
328 312 294 272 322 341 46 54 26 9 9 289 324 32 313 327 345 359 8 10 13 19 22 23 29 35 36 38 42 53 81 86 104 127 139 153 164 158 160 171 179 175 173 181
9 306 286 273 215 278 345 113 132 179 263 304 350 352 312 339 5 16 21 23 21 20 22 26 28 31 35 38 43 53 69 75 79 89 105 125 146 134 150 170 167 164 171 183
166 270 294 272 257 160 48 91 182 142 312 333 323 318 323 13 24 20 23 28 24 20 22 23 25 30 34 36 37 48 61 66 64 67 75 75 79 103 133 146 153 161 163 178
156 268 299 304 20 2 155 170 88 106 102 334 322 321 323 343 4 11 18 23 19 19 24 24 24 25 29 32 32 38 49 53 53 53 54 58 59 65 75 97 112 146 167 179
145 133 317 354 22 302 0 15 69 131 156 151 293 294 308 301 347 11 13 21 24 26 25 26 28 26 30 32 33 36 37 39 42 43 49 50 44 48 51 61 79 121 172 198
168 118 300 284 279 252 214 217 164 139 276 145 156 273 7 30 2 33 21 16 24 30 27 28 30 30 30 29 27 30 30 29 28 30 39 40 34 37 40 48 49 47 234 217
132 104 23 347 340 345 320 287 214 144 116 132 163 260 32 55 40 33 32 20 20 26 28 27 28 28 27 25 23 24 23 22 20 24 31 32 26 24 18 23 21 22 344 288
103 110 164 199 236 254 287 296 289 127 139 193 220 227 283 11 36 22 36 35 30 31 28 25 22 20 20 19 19 18 17 17 19 25 29 29 18 10 7 11 13 8 359 334
91 130 236 256 261 238 256 270 250 177 192 191 210 207 229 214 189 174 71 56 46 35 28 25 19 13 14 14 13 12 12 10 14 26 29 24 16 14 15 16 14 10 5 354
65 140 319 311 298 277 276 268 232 217 205 201 196 254 228 158 104 94 90 81 62 37 22 15 15 11 8 7 4 4 4 3 9 20 19 11 11 14 17 14 12 13 8 4
52 100 43 291 310 347 290 244 203 208 203 177 204 220 153 145 172 179 166 130 108 41 12 5 4 1 355 354 358 358 354 356 6 11 10 7 6 9 9 8 10 7 3 3
140 101 124 297 2 270 254 260 182 190 236 206 194 178 172 181 190 179 160 158 163 123 351 344 344 346 344 352 358 354 356 1 4 4 1 0 3 4 358 358 2 357 351 352
153 144 125 110 289 284 285 230 172 179 266 207 181 175 159 128 83 295 234 183 192 207 271 301 314 331 345 354 354 360 2 1 4 2 356 350 351 354 352 350 346 339 338 340
88 105 122 148 220 248 254 207 152 103 280 220 173 170 166 141 179 245 225 197 200 260 358 333 341 3 0 346 353 7 1 360 355 347 341 338 340 342 338 334 334 331 333 329
126 116 161 190 237 263 250 170 114 167 247 193 173 171 170 189 207 201 171 175 176 164 323 12 22 1 332 337 356 358 353 346 333 331 333 335 334 331 328 330 333 330 329 332
182 179 196 175 213 256 203 143 186 218 202 157 167 173 176 188 162 150 159 162 147 103 16 19 6 333 328 340 353 344 333 326 330 333 333 333 332 330 331 330 327 323 324 325
204 195 193 198 218 245 196 204 214 170 168 177 172 177 165 162 170 172 174 172 166 158 325 340 332 324 330 333 339 327 318 327 333 332 329 326 326 324 321 319 318 318 317 307
262 201 205 259 263 250 235 233 208 181 181 176 169 167 162 168 175 176 176 178 189 216 240 312 333 318 315 319 320 313 319 327 328 323 320 320 321 322 322 320 313 308 307 303
234 198 218 258 272 284 259 224 203 182 162 151 154 165 167 163 174 180 186 197 203 219 259 279 276 286 298 312 318 324 327 330 326 320 316 318 318 314 314 315 309 302 289 288
207 190 192 229 225 207 238 221 189 177 185 175 162 162 166 170 179 182 195 199 195 214 253 290 286 288 294 301 307 315 322 325 320 318 316 314 316 316 318 320 322 327 318 321